Orebro current weather conditions

sailwx.info

Wind from 230 at 18 knots

Air temperature 5.0° C
Visibility: greater than 5.4 NM
Dewpoint 4.0° C

Last reported at 2018-Jan-24 10:50 UTC.
Time now 2018-Jan-24 12:01 UTC

Location: N 59°13' E 015°02'.
View on Google Maps.

See reports from other nearby stations

  
Tides and Currents Weather Stations Pressure Air Temp Water Temp Dewpoint Dewpoint Depression Visibility Wind Speed Wind Dir Waves Ship Positions
date/time (UTC)wind fromknots sea level pressurealtimeterstation pressurevisibilityair tempwater tempwave heightnotes
2018-Jan-24 10:50 230 18 5.4 5.0
2018-Jan-24 10:20 240 17 5.4 5.0
2018-Jan-24 09:50 240 14 5.4 5.0
2018-Jan-24 09:20 250 13 5.4 5.0
2018-Jan-24 08:50 250 14 5.4 5.0
2018-Jan-24 08:20 250 12 5.4 5.0
2018-Jan-24 07:50 240 13 5.4 5.0
2018-Jan-24 07:20 240 15 5.4 5.0
2018-Jan-24 06:50 240 17 5.4 4.0
2018-Jan-24 06:20 230 15 3.2 4.0 Mist.
2018-Jan-24 05:50 210 14 1.9 3.0 Light drizzle. Mist.
2018-Jan-24 05:20 220 13 1.9 3.0 Light drizzle.
2018-Jan-24 04:50 220 13 5.4 3.0 Light drizzle.
2018-Jan-24 03:50 210 13 1.8 2.0 Light rain.
2018-Jan-24 03:20 200 11 1.9 2.0 Drizzle.
2018-Jan-24 02:50 200 12 5.4 1.0 Light rain.
2018-Jan-24 02:20 190 11 3.8 1.0 Light snow.
2018-Jan-24 01:50 180 8 1.7 1.0 Light snow.
2018-Jan-24 01:20 180 8 0.9 1.0 Light snow.
2018-Jan-24 00:50 180 7 0.3-0.0 Snow.
2018-Jan-24 00:20 180 9 0.6-0.0 Light snow.
2018-Jan-23 23:50 180 9 1.0-0.0 Snow.
2018-Jan-23 22:50 190 13 2.4-0.0 Light snow.
2018-Jan-23 22:20 180 15 2.7-0.0 Light snow.
2018-Jan-23 21:50 200 15 5.4-0.0
2018-Jan-23 21:20 190 13 4.9-0.0 Mist.
2018-Jan-23 20:50 190 11 3.8-1.0 Light snow.
2018-Jan-23 20:20 180 9 4.9-1.0 Light snow.
2018-Jan-23 19:50 170 8 1.6-1.0 Light snow.
2018-Jan-23 19:20 180 9 1.3-1.0 Light snow.
2018-Jan-23 18:50 180 8 2.7-1.0 Light snow.
2018-Jan-23 18:20 150 8 5.4-2.0 Light snow.
2018-Jan-23 17:50 160 7 5.4-2.0
2018-Jan-23 17:20 160 11 5.4-2.0
2018-Jan-23 16:50 150 13 5.4-2.0
2018-Jan-23 16:20 150 11 5.4-2.0
2018-Jan-23 15:50 150 11 5.4-2.0
2018-Jan-23 15:20 160 11 5.4-1.0
2018-Jan-23 14:50 190 13 5.4-1.0
2018-Jan-23 14:20 190 13 5.4-1.0
2018-Jan-23 13:50 190 12 5.4-1.0
2018-Jan-23 13:20 190 11 5.4-1.0
2018-Jan-23 12:50 190 11 5.4-1.0
2018-Jan-23 12:20 190 8 5.4-1.0
2018-Jan-23 11:20 170 6 3.8-2.0 Mist.
2018-Jan-23 10:50 170 6 3.8-2.0 Mist.
2018-Jan-23 10:20 180 6 4.3-2.0 Mist.
2018-Jan-23 09:50 190 8 5.4-2.0
2018-Jan-23 09:20 200 8 5.4-2.0
2018-Jan-23 08:50 190 6 5.4-2.0
2018-Jan-23 08:20 190 6 5.4-2.0
2018-Jan-23 07:50 190 5 5.4-3.0
2018-Jan-23 07:20 180 2 4.9-3.0 Mist.
2018-Jan-23 06:50 150 2 4.3-3.0 Mist.
2018-Jan-23 06:20 110 1 4.3-4.0 Mist.
2018-Jan-23 05:50 4.9-4.0
2018-Jan-23 05:20 4.9-4.0 Mist.
2018-Jan-23 04:50 5.4-4.0
2018-Jan-23 04:20 4.9-4.0 Mist.
2018-Jan-23 03:50 090 0 5.4-4.0
2018-Jan-23 03:20 5.4-4.0
2018-Jan-23 02:50 5.4-4.0
2018-Jan-23 02:20 080 1 5.4-4.0
2018-Jan-23 01:50 120 2 4.9-4.0 Mist.
2018-Jan-23 01:20 4.9-5.0 Mist.
2018-Jan-23 00:50 360 0 4.9-4.0 Mist.
2018-Jan-23 00:20 020 0 5.4-5.0
2018-Jan-22 23:50 350 1 5.4-5.0
2018-Jan-22 23:20 5.4-5.0
2018-Jan-22 22:50 360 1 5.4-5.0
2018-Jan-22 22:20 020 1 5.4-5.0
2018-Jan-22 21:50 360 1 5.4-5.0
2018-Jan-22 21:20 5.4-4.0
2018-Jan-22 20:50 360 0 5.4-4.0
2018-Jan-22 20:20 5.4-4.0
2018-Jan-22 19:50 5.4-4.0
2018-Jan-22 19:20 5.4-5.0
2018-Jan-22 18:50 5.4-5.0
2018-Jan-22 18:20 5.4-5.0
2018-Jan-22 17:50 340 1 5.4-4.0
2018-Jan-22 17:20 010 2 5.4-5.0
2018-Jan-22 16:50 030 2 5.4-5.0
2018-Jan-22 16:20 020 2 5.4-5.0
2018-Jan-22 15:50 030 1 5.4-5.0
2018-Jan-22 15:20 010 1 5.4-5.0
2018-Jan-22 14:50 5.4-5.0
2018-Jan-22 14:20 5.4-5.0
2018-Jan-22 13:50 330 1 5.4-4.0
2018-Jan-22 13:20 5.4-5.0
2018-Jan-22 12:50 090 1 5.4-5.0
2018-Jan-22 12:20 5.4-5.0